Location: Kers�lec
(47.9167°N, 3.5833°W)
Time: 05:53:54
(UTC+00:00)

Daily predictions for brighter satellites

Satellite Brightness Start Highest point End
(mag) Time Altitude Azimuth Time Altitude Azimuth Time Altitude Azimuth
USA 267 4.5 02:26:03 10° ENE 02:30:09 35° E 02:30:09 35° E
Cosmos 2278 Rocket 4.3 02:44:56 10° N 02:49:24 23° NE 02:53:50 10° E
ADEOS II 4.1 02:47:05 10° NNE 02:49:00 23° NNE 02:49:00 23° NNE
Cosmos 2333 Rocket 4.0 02:55:19 25° ESE 02:55:26 25° ESE 02:59:56 10° NE
USA 234 3.5 03:00:53 10° ESE 03:06:32 65° E 03:06:32 65° E
SL-16 R/B 3.8 03:17:01 27° N 03:17:01 27° N 03:19:47 10° NNE
Cosmos 2322 4.4 03:19:21 52° ENE 03:19:21 52° ENE 03:23:55 10° NNE
ATLAS 3B R/B 3.8 03:15:12 23° NNW 03:18:40 38° NE 03:24:56 10° E
Cosmos 2219 Rocket 3.2 03:23:39 39° ESE 03:24:00 39° ESE 03:29:11 10° NE
IDEFIX/ARIANE 42P 4.0 03:20:40 10° NNE 03:25:26 34° E 03:27:07 28° SE
CENTAUR R/B 3.8 03:25:19 18° NNW 03:31:08 52° NE 03:39:27 10° ESE
ATLAS 5 CENTAUR R/B 4.4 03:29:35 21° N 03:31:20 25° NNE 03:40:14 10° ENE
Cosmos 2251 Rocket 3.9 03:39:57 64° NE 03:39:57 64° NE 03:44:35 10° NNE
Gblst 52 Del rocket 4.5 03:40:51 58° NNE 03:40:51 58° NNE 03:46:03 10° ENE
ATLAS 2AS CENTAUR R/B 3.9 03:36:56 23° S 03:41:34 44° ESE 03:49:04 10° NE
BREEZE-M R/B 3.8 03:43:11 69° ESE 03:43:11 69° ESE 03:50:56 10° ENE
USA 238 DEB 3.7 03:42:52 59° NW 03:44:25 84° SW 03:51:51 10° SE
USA 238 3.7 03:42:55 59° NW 03:44:32 85° SW 03:51:56 10° SE
Cosmos 2322 Rocket 3.6 03:47:28 26° NNW 03:47:28 26° NNW 03:50:42 10° NNE
COSMOS 2428 3.1 03:45:13 53° SE 03:46:01 58° ESE 03:51:36 10° NE
Cosmos 2098 Rocket 4.2 03:45:42 70° WSW 03:46:15 72° W 03:53:38 10° N
Cosmos 2360 Rocket 2.8 03:56:58 42° NNW 03:56:58 42° NNW 04:01:21 10° NNE
SL-08 ROCKET BODY 4.4 03:57:49 61° NW 03:57:49 61° NW 04:03:07 10° N
Cosmos 1842 4.3 04:02:09 43° NE 04:02:09 43° NE 04:05:01 10° NNE
Resurs 1-4 Rocket 4.5 03:58:39 10° NNW 03:58:44 10° NNW 03:58:44 10° NNW
Cosmos 1980 Rocket 4.4 04:03:37 11° NNW 04:03:37 11° NNW 04:05:11 10° N
Cosmos 1709 Rocket 3.9 04:02:05 54° SSW 04:03:38 80° W 04:10:02 10° N
Meteor 2-21 Rocket 4.4 04:08:49 59° W 04:09:02 60° WNW 04:15:11 10° N
NOSS 3-2 (A) 3.9 04:05:40 29° NW 04:09:56 73° SW 04:18:16 10° SSE
ERBS 4.1 04:11:12 30° ESE 04:11:12 30° ESE 04:13:37 10° ENE
H-2A R/B 3.4 04:07:08 10° NNE 04:11:09 48° E 04:13:27 24° SSE
USA 267 3.2 04:09:03 10° NE 04:15:33 70° NNW 04:17:30 47° W
NOSS 2-2 (E) 3.6 04:16:35 61° NNE 04:16:35 61° NNE 04:20:18 10° NE
Spot 2 4.2 04:13:38 10° NNE 04:16:54 56° N 04:16:54 56° N
ADEOS 3.5 04:13:36 10° NNE 04:18:52 89° WNW 04:21:05 36° SSW
CZ-2C R/B 3.6 04:14:50 10° NNE 04:19:49 44° E 04:24:44 10° S
COSMOS 2455 3.0 04:19:21 51° WNW 04:20:07 54° NW 04:26:03 10° NNE
CBERS 1 LM4 rocket 4.4 04:19:58 10° N 04:25:01 57° WNW 04:25:15 57° W
USA 32 4.1 04:24:08 10° S 04:29:21 76° E 04:34:36 10° N
ARIANE 5 R/B 4.3 04:27:59 10° NNW 04:29:41 16° NNW 04:29:41 16° NNW
ADEOS II 3.8 04:27:43 10° NNW 04:29:56 18° NW 04:29:56 18° NW
NOSS 0 Rocket 4.2 04:26:28 14° SSW 04:31:51 67° ESE 04:38:01 10° NNE
Cosmos 292 Rocket 3.6 04:28:29 13° NNW 04:32:47 79° WSW 04:37:35 10° SSE
NOSS 3-2 (C) 3.9 04:26:42 15° NW 04:33:14 75° SW 04:41:36 10° SSE
Cosmos 2278 Rocket 2.1 04:28:28 10° NNW 04:34:11 80° WSW 04:39:50 10° SSE
PSLV R/B 3.4 04:29:58 10° N 04:34:11 62° WNW 04:34:17 61° W
Cosmos 44 2.9 04:33:10 42° NW 04:34:35 89° NE 04:38:54 10° SE
Cosmos 1025 Rocket 2.8 04:35:01 50° SSW 04:36:01 74° W 04:40:18 10° N
Cosmos 2333 Rocket 2.2 04:37:22 40° WSW 04:39:17 60° WNW 04:44:56 10° NNE
Cosmos 2074 Rocket 4.0 04:34:17 10° S 04:40:32 82° E 04:46:47 10° N
Cosmos 921 Rocket 3.0 04:42:56 47° WNW 04:43:40 54° WSW 04:47:47 10° S
Aureole 1 Rocket 3.7 04:41:14 33° SW 04:43:45 55° WNW 04:48:34 10° NNE
Cosmos 2181 Rocket 4.2 04:41:49 10° NNW 04:47:50 46° W 04:53:44 10° SSW
CZ-4B R/B 3.4 04:45:19 10° NNE 04:49:22 59° ESE 04:53:10 10° S
Meteor 1-21 4.1 04:44:52 10° SSW 04:50:25 66° WNW 04:56:03 10° N
USA 234 3.6 04:44:32 10° SSE 04:50:41 43° SW 04:53:54 26° W
NOSS 3-4 (A) 3.7 04:46:05 12° SSW 04:51:40 68° SE 04:58:01 10° NE
Cosmos 389 Rocket 2.8 04:48:20 10° S 04:51:43 65° E 04:55:09 10° NNE
NOSS 3-4 (C) 3.7 04:46:05 12° SSW 04:51:46 68° SE 04:58:08 10° NE
NOSS 2-2 (D) 3.6 04:53:36 41° WNW 04:54:15 46° NW 04:58:28 10° NNE
Cosmos 1536 Rocket 3.9 04:55:20 37° W 04:56:01 40° WNW 05:00:08 10° N
Cosmos 1140 Rocket 4.0 04:53:53 10° S 04:58:59 62° ESE 05:04:06 10° NNE
Cosmos 489 Rocket 4.5 04:53:53 10° NNW 05:00:01 60° WSW 05:06:09 10° S
SL-16 R/B 4.2 04:58:54 12° NW 05:00:01 12° NNW 05:02:22 10° N
PAYLOAD A 3.8 04:55:55 10° N 05:00:42 70° WNW 05:05:39 10° SSW
Cosmos 1953 2.2 04:57:36 10° N 05:01:41 85° W 05:05:41 10° S
Cosmos 614 Rocket 3.9 04:58:35 10° SSW 05:03:49 86° WNW 05:09:04 10° NNE
IDEFIX/ARIANE 42P 3.1 05:00:15 10° N 05:05:03 38° WNW 05:07:55 21° WSW
MSX 3.9 05:00:24 10° N 05:06:01 57° WNW 05:11:36 10° SW
SKYMED 2 4.2 05:02:15 10° SSE 05:06:31 59° ENE 05:10:49 10° N
Cosmos 2219 Rocket 2.7 05:05:24 25° WSW 05:07:59 39° NW 05:13:13 10° NNE
Cosmos 1758 3.7 05:05:39 10° NNW 05:09:24 39° W 05:13:09 10° SSW
ATLAS 3B R/B 2.6 05:03:08 10° NW 05:09:46 67° SW 05:16:34 10° SSE
Cosmos 1892 Rocket 4.1 05:10:38 10° S 05:15:00 61° E 05:19:22 10° NNE
BREEZE-M DEB (TANK) 1.9 05:15:00 38° WNW 05:15:41 65° N 05:18:11 10° ENE
Cosmos 2237 Rocket 2.1 05:10:39 10° SSW 05:16:19 74° WNW 05:22:03 10° NNE
Cosmos 1356 3.6 05:12:56 10° N 05:16:24 74° ENE 05:19:51 10° SSE
Meteor PRIRODA 3.7 05:13:22 10° NNE 05:17:08 84° ESE 05:20:53 10° SSW
GP-B 3.2 05:15:19 10° S 05:19:45 78° E 05:24:12 10° N
CENTAUR R/B 3.3 05:14:21 10° NW 05:22:11 58° WSW 05:30:36 10° SSE
BREEZE-M DEB (TANK) 2.7 05:22:09 27° WSW 05:22:47 33° SSW 05:25:00 10° SE
In-Cosmos 22 4.4 05:19:23 10° S 05:24:41 73° E 05:30:09 10° NNE
Meteor 1-31 Rocket 2.8 05:21:39 10° N 05:25:22 51° WNW 05:29:02 10° SSW
Cosmos 1606 Rocket 3.5 05:22:17 10° NNW 05:26:32 56° W 05:30:45 10° S
RESURS DK-1 3.2 05:25:41 10° SSW 05:29:43 54° ESE 05:33:46 10° NE
Cosmos 2369 Rocket 3.8 05:25:27 10° NNW 05:30:31 33° NE 05:35:32 10° ESE
COSMOS 2428 3.6 05:27:16 17° W 05:30:39 29° NW 05:35:34 10° NNE
ATLAS 2AS CENTAUR R/B 3.2 05:24:32 10° WSW 05:32:29 61° NW 05:40:26 10° NE
Gblst 52 Del rocket 4.2 05:27:48 15° WNW 05:32:31 84° NNE 05:38:30 10° ESE
Cosmos 1470 3.9 05:30:06 10° NW 05:33:12 22° W 05:36:15 10° SW
Cosmos 1980 3.8 05:27:52 10° SW 05:33:24 53° WNW 05:38:57 10° NNE
Meteor 2-10 4.0 05:28:24 10° NNW 05:33:36 85° WSW 05:38:55 10° S
Cosmos 1023 Rocket 4.4 05:28:31 10° SSW 05:33:40 69° WNW 05:38:48 10° NNE
SJ-12 4.3 05:30:55 10° NNE 05:35:00 70° E 05:39:06 10° S
Cosmos 1707 3.3 05:31:42 10° SW 05:35:21 37° WNW 05:39:02 10° N
CZ-4B R/B 4.2 05:32:05 10° N 05:35:48 42° WNW 05:39:39 10° SW
CZ-4B R/B 4.1 05:32:20 10° NNE 05:37:33 52° E 05:42:41 10° S
Cosmos 2360 Rocket 4.1 05:38:54 10° WNW 05:41:23 13° NNW 05:43:53 10° N
Cosmos 1484 Rocket 2.6 05:38:32 10° N 05:42:19 73° WNW 05:46:08 10° SSW
Okean 1-7 Rocket 3.5 05:38:12 10° SSW 05:42:38 71° W 05:47:08 10° N
Cosmos 676 Rocket 4.0 05:37:30 10° SSW 05:42:47 74° WNW 05:48:03 10° NNE
Cosmos 2154 Rocket 4.0 05:36:59 10° SSW 05:43:04 59° WNW 05:49:13 10° N
H-2A R/B 3.8 05:43:23 10° NNW 05:46:22 20° WNW 05:49:25 10° WSW
ERBS 3.0 05:44:15 14° W 05:46:52 39° NNW 05:50:05 10° NE
Cosmos 1763 Rocket 4.3 05:42:03 10° NNW 05:47:09 53° ENE 05:52:09 10° SE
USA 116 3.5 05:48:58 10° S 05:52:48 66° WSW 05:56:14 10° NNW
Cosmos 1190 Rocket 4.5 05:48:05 10° SW 05:53:04 40° WNW 05:58:04 10° N
Cosmos 1726 2.2 05:50:50 10° NNW 05:54:23 50° W 05:57:56 10° S
COSMO-SKYMED 1 2.9 05:50:29 10° S 05:54:39 45° W 05:58:51 10° NNW
Cosmos 407 Rocket 4.1 05:50:18 10° WSW 05:54:58 34° WNW 05:59:39 10° N
Meteor 1-24 Rocket 4.4 05:51:06 10° S 05:56:46 64° E 06:02:38 10° NNE
ALOS 2.4 05:52:30 10° NNE 05:57:13 85° ESE 06:01:53 10° SSW
CZ-2C R/B 3.4 05:53:24 10° N 05:57:52 30° WNW 06:02:18 10° WSW
USA 267 3.9 05:51:59 10° ENE 05:58:03 42° N 06:04:08 10° WNW
Nadezhda 3 Rocket 4.5 05:55:31 10° NNW 06:01:21 39° W 06:07:08 10° SSW
COBE Rocket 4.4 05:57:04 10° SSW 06:01:49 42° W 06:06:42 10° NNW
Cosmos 1674 2.5 06:00:30 10° SSW 06:04:12 72° WNW 06:07:56 10° N
BREEZE-M DEB (TANK) 1.7 06:00:59 10° W 06:04:39 61° N 06:06:49 10° E
Meteor 1-4 Rocket 3.6 06:01:54 10° SW 06:04:45 23° WNW 06:07:36 10° NNW
Cosmos 2341 Rocket 4.0 06:00:49 10° SSW 06:07:00 65° WNW 06:13:13 10° N
COSMOS 2455 4.4 06:03:24 10° WNW 06:07:28 18° NNW 06:11:31 10° NNE
Cosmos 1726 Rocket 4.5 06:04:01 10° NNW 06:07:38 26° W 06:11:14 10° SW
Meteor 2-17 Rocket 4.4 06:02:03 10° SSW 06:08:06 73° W 06:14:12 10° N
Cosmos 1943 Rocket 2.7 06:02:33 10° NNW 06:08:13 66° ENE 06:13:51 10° SE
SL-16 R/B 2.2 06:03:08 10° SSW 06:08:48 74° WNW 06:14:30 10° NNE
FENGYUN 3A 3.7 06:05:00 10° NNE 06:10:28 83° WNW 06:15:55 10° SSW
